sat.trackr.live / text

‹ back to catalog

UNKNOWN

NORAD 89213

UNKNOWN UNKNOWN UNKNOWN

§ Identity

Operator
Country
Launch date
Launch site
Launch vehicle
Mass (kg)
RCS (m²)

External: N2YO · Heavens-Above

§ Orbital elements

Epoch: 2026-05-23T09:24:49.586976Z

Period
103.47 min
Inclination
98.7604°
Eccentricity
0.0228486
Mean motion
13.91768385 rev/d
Perigee alt
755.6 km
Apogee alt
1,089.2 km
Semi-major
7,300.6 km
B*
1.6818e-4
RAAN
12.9207°
Arg perigee
42.7695°
Mean anomaly
319.0996°
Rev number
47,515

§ Raw data

UNKNOWN1 89213U          26143.39224059  .00000225  00000+0  16818-3 0  99982 89213  98.7604  12.9207 0228486  42.7695 319.0996 13.91768385475153

JSON: /api/v1/satellites/89213 · /tle

For live sub-satellite position, see the globe view (requires WebGL).

§ Visibility from observer

Set your observer location to see the next 7 days of passes ≥ 10°. The values pass through the URL so the page stays shareable.

No JS? Fill the form by hand. The geolocation button needs JavaScript.